20050711,000009,1049515,32.290445,-123.498255,18.850,33.300,0.139,0.097
20050711,000039,1049545,32.291145,-123.496781,18.843,33.297,0.139,0.095
20050711,000108,1049574,32.291858,-123.495328,18.846,33.295,0.139,0.094
20050711,000138,1049604,32.292562,-123.493918,18.858,33.285,0.133,0.089
20050711,000208,1049634,32.293318,-123.492398,18.855,33.291,0.139,0.096
20050711,000239,1049665,32.294042,-123.490930,18.846,33.297,0.139,0.097
20050711,000308,1049693,32.294768,-123.489465,18.838,33.298,0.145,0.104
20050711,000339,1049725,32.295482,-123.487988,18.824,33.298,0.145,0.106
20050711,000408,1049754,32.296210,-123.486531,18.818,33.296,0.145,0.108
20050711,000438,1049784,32.296933,-123.485085,18.820,33.289,0.145,0.107
20050711,000508,1049814,32.297647,-123.483646,18.821,33.289,0.139,0.100
20050711,000538,1049843,32.298357,-123.482200,18.821,33.291,0.145,0.104
20050711,000608,1049873,32.299083,-123.480736,18.817,33.294,0.139,0.097
20050711,000639,1049905,32.299812,-123.479266,18.812,33.297,0.139,0.095
20050711,000709,1049934,32.300530,-123.477795,18.810,33.298,0.139,0.096
20050711,000738,1049964,32.301238,-123.476348,18.811,33.296,0.139,0.098
20050711,000808,1049994,32.301963,-123.474921,18.810,33.296,0.139,0.099
20050711,000838,1050023,32.302668,-123.473456,18.810,33.296,0.139,0.100
20050711,000909,1050055,32.303395,-123.472003,18.810,33.298,0.145,0.111
20050711,000939,1050084,32.304118,-123.470536,18.812,33.297,0.139,0.105
20050711,001009,1050114,32.304838,-123.469075,18.820,33.291,0.139,0.102
20050711,001038,1050144,32.305557,-123.467623,18.831,33.292,0.139,0.101
20050711,001109,1050175,32.306287,-123.466170,18.823,33.303,0.139,0.099
20050711,001138,1050203,32.306998,-123.464735,18.814,33.306,0.139,0.098
20050711,001208,1050234,32.307720,-123.463286,18.808,33.305,0.139,0.098
20050711,001239,1050264,32.308440,-123.461838,18.806,33.301,0.133,0.092
20050711,001309,1050294,32.309148,-123.460396,18.814,33.297,0.133,0.091
20050711,001339,1050325,32.309862,-123.458946,18.816,33.297,0.133,0.090
20050711,001408,1050353,32.310610,-123.457496,18.816,33.299,0.139,0.094
20050711,001438,1050383,32.311322,-123.456050,18.815,33.301,0.145,0.099
20050711,001508,1050414,32.312005,-123.454598,18.818,33.300,0.139,0.093
20050711,001538,1050444,32.312717,-123.453151,18.824,33.295,0.139,0.093
20050711,001609,1050475,32.313443,-123.451728,18.834,33.293,0.139,0.092
20050711,001638,1050503,32.314160,-123.450283,18.843,33.295,0.145,0.097
20050711,001709,1050535,32.314867,-123.448843,18.844,33.298,0.139,0.091
20050711,001739,1050565,32.315577,-123.447420,18.844,33.303,0.145,0.096
20050711,001809,1050594,32.316277,-123.445995,18.848,33.301,0.139,0.091
20050711,001839,1050624,32.316985,-123.444568,18.850,33.302,0.145,0.095
20050711,001909,1050655,32.317682,-123.443136,18.855,33.299,0.145,0.095
20050711,001938,1050683,32.318373,-123.441716,18.863,33.297,0.139,0.090
20050711,002008,1050713,32.319080,-123.440311,18.873,33.294,0.139,0.090
20050711,002038,1050744,32.319767,-123.438918,18.884,33.295,0.150,0.101
20050711,002109,1050774,32.320465,-123.437510,18.899,33.293,0.145,0.097
20050711,002138,1050804,32.321163,-123.436093,18.899,33.302,0.145,0.098
20050711,002208,1050834,32.321870,-123.434665,18.892,33.307,0.139,0.094
20050711,002239,1050865,32.322588,-123.433255,18.886,33.308,0.139,0.095
20050711,002308,1050893,32.323290,-123.431828,18.880,33.306,0.139,0.095
20050711,002338,1050924,32.324023,-123.430428,18.875,33.307,0.145,0.100
20050711,002408,1050954,32.324693,-123.428990,18.871,33.306,0.139,0.095
20050711,002439,1050985,32.325370,-123.427523,18.879,33.303,0.139,0.095
20050711,002508,1051013,32.326050,-123.426065,18.879,33.306,0.145,0.101
20050711,002538,1051043,32.326732,-123.424591,18.883,33.299,0.145,0.101
20050711,002608,1051074,32.327378,-123.423121,18.881,33.305,0.139,0.095
20050711,002639,1051104,32.328043,-123.421676,18.873,33.301,0.139,0.095
20050711,002709,1051134,32.328715,-123.420243,18.881,33.301,0.139,0.095
20050711,002739,1051165,32.329373,-123.418806,18.886,33.300,0.139,0.095
20050711,002809,1051195,32.330022,-123.417378,18.892,33.300,0.139,0.094
20050711,002838,1051223,32.330680,-123.415942,18.888,33.302,0.139,0.094
20050711,002909,1051255,32.331355,-123.414443,18.892,33.302,0.133,0.089
20050711,002939,1051284,32.332012,-123.413023,18.883,33.308,0.139,0.096
20050711,003009,1051315,32.332655,-123.411612,18.870,33.310,0.133,0.091
20050711,003038,1051344,32.333305,-123.410190,18.877,33.304,0.139,0.096
20050711,003109,1051375,32.333960,-123.408730,18.884,33.300,0.139,0.096
20050711,003139,1051405,32.334632,-123.407305,18.882,33.305,0.139,0.095
20050711,003209,1051434,32.335288,-123.405848,18.877,33.304,0.139,0.094
20050711,003238,1051464,32.335962,-123.404410,18.878,33.302,0.139,0.093
20050711,003309,1051495,32.336610,-123.402983,18.875,33.303,0.145,0.099
20050711,003339,1051525,32.337257,-123.401547,18.871,33.305,0.133,0.088
20050711,003409,1051555,32.337917,-123.400135,18.869,33.302,0.139,0.092
20050711,003439,1051585,32.338587,-123.398645,18.869,33.302,0.139,0.091
20050711,003509,1051614,32.339253,-123.397212,18.869,33.301,0.145,0.095
20050711,003539,1051644,32.339920,-123.395775,18.875,33.294,0.139,0.089
20050711,003609,1051675,32.340553,-123.394375,18.884,33.290,0.133,0.084
20050711,003639,1051705,32.341200,-123.392950,18.898,33.287,0.139,0.089
20050711,003709,1051735,32.341880,-123.391527,18.907,33.290,0.145,0.094
20050711,003739,1051764,32.342532,-123.390087,18.902,33.300,0.145,0.095
20050711,003809,1051794,32.343200,-123.388620,18.888,33.306,0.145,0.095
20050711,003839,1051825,32.343878,-123.387182,18.871,33.310,0.139,0.090
20050711,003909,1051855,32.344560,-123.385692,18.855,33.314,0.139,0.091
20050711,003939,1051885,32.345207,-123.384255,18.857,33.301,0.145,0.096
20050711,004009,1051915,32.345863,-123.382837,18.861,33.298,0.145,0.097
20050711,004040,1051946,32.346540,-123.381410,18.861,33.299,0.139,0.091
20050711,004110,1051976,32.347227,-123.379955,18.860,33.297,0.150,0.102
20050711,004139,1052005,32.347915,-123.378485,18.863,33.298,0.145,0.097
20050711,004209,1052035,32.348597,-123.377018,18.852,33.304,0.139,0.093
20050711,004240,1052065,32.349278,-123.375560,18.846,33.302,0.139,0.093
20050711,004310,1052096,32.349953,-123.374100,18.853,33.292,0.139,0.094
20050711,004339,1052124,32.350648,-123.372642,18.863,33.289,0.145,0.100
20050711,004409,1052154,32.351345,-123.371172,18.865,33.292,0.139,0.094
20050711,004439,1052185,32.352035,-123.369728,18.860,33.295,0.145,0.099
20050711,004509,1052215,32.352730,-123.368295,18.854,33.299,0.139,0.093
20050711,004539,1052245,32.353393,-123.366833,18.846,33.298,0.150,0.103
20050711,004610,1052276,32.354073,-123.365377,18.844,33.297,0.139,0.093
20050711,004640,1052306,32.354748,-123.363953,18.840,33.295,0.139,0.093
20050711,004709,1052335,32.355427,-123.362540,18.843,33.289,0.139,0.093
20050711,004739,1052365,32.356107,-123.361115,18.836,33.293,0.145,0.099
20050711,004810,1052395,32.356762,-123.359660,18.826,33.296,0.145,0.098
20050711,004839,1052425,32.357460,-123.358230,18.821,33.290,0.145,0.097
20050711,004910,1052456,32.358107,-123.356795,18.813,33.291,0.145,0.096
20050711,004940,1052486,32.358778,-123.355362,18.809,33.287,0.139,0.090
20050711,005009,1052515,32.359463,-123.353928,18.799,33.292,0.145,0.095
20050711,005039,1052545,32.360120,-123.352510,18.781,33.294,0.145,0.095
20050711,005109,1052575,32.360782,-123.351085,18.771,33.289,0.145,0.094
20050711,005139,1052605,32.361468,-123.349635,18.755,33.289,0.150,0.098
20050711,005210,1052636,32.362140,-123.348170,18.742,33.283,0.145,0.093
20050711,005240,1052666,32.362843,-123.346717,18.732,33.280,0.150,0.098
20050711,005310,1052695,32.363553,-123.345203,18.713,33.280,0.150,0.098
20050711,005340,1052725,32.364222,-123.343737,18.696,33.274,0.150,0.098
20050711,005410,1052756,32.364925,-123.342312,18.676,33.269,0.150,0.098
20050711,005440,1052786,32.365573,-123.340887,18.657,33.269,0.150,0.099
20050711,005510,1052816,32.366247,-123.339427,18.641,33.259,0.156,0.104
20050711,005540,1052846,32.366953,-123.337928,18.629,33.257,0.156,0.104
20050711,005610,1052875,32.367620,-123.336517,18.609,33.257,0.150,0.100
20050711,005640,1052905,32.368317,-123.335053,18.597,33.254,0.150,0.103
20050711,005709,1052935,32.368978,-123.333577,18.582,33.250,0.162,0.114
20050711,005740,1052966,32.369670,-123.332117,18.576,33.242,0.150,0.103
20050711,005810,1052996,32.370357,-123.330660,18.567,33.241,0.162,0.115
20050711,005840,1053025,32.371058,-123.329207,18.561,33.237,0.156,0.111
20050711,005909,1053055,32.371722,-123.327748,18.561,33.229,0.156,0.112
20050711,005940,1053086,32.372425,-123.326295,18.560,33.229,0.156,0.112
20050711,010010,1053116,32.373108,-123.324858,18.562,33.228,0.156,0.111
20050711,010040,1053146,32.373783,-123.323422,18.569,33.222,0.150,0.104
20050711,010110,1053176,32.374427,-123.322045,18.574,33.222,0.156,0.108
20050711,010140,1053205,32.375153,-123.320582,18.572,33.229,0.162,0.111
20050711,010211,1053237,32.375832,-123.319123,18.570,33.230,0.150,0.099
20050711,010240,1053266,32.376500,-123.317732,18.570,33.231,0.150,0.098
20050711,010310,1053296,32.377185,-123.316282,18.564,33.234,0.162,0.108
20050711,010340,1053326,32.377915,-123.314782,18.557,33.235,0.150,0.097
20050711,010410,1053356,32.378577,-123.313360,18.555,33.235,0.162,0.108
20050711,010439,1053385,32.379283,-123.311912,18.553,33.231,0.162,0.109
20050711,010510,1053415,32.379987,-123.310463,18.549,33.233,0.167,0.115
20050711,010540,1053446,32.380658,-123.309012,18.540,33.234,0.167,0.117
20050711,010610,1053476,32.381352,-123.307568,18.533,33.233,0.162,0.112
20050711,010640,1053506,32.382060,-123.306088,18.527,33.234,0.156,0.111
20050711,010710,1053535,32.382710,-123.304670,18.515,33.239,0.162,0.141
20050711,010740,1053565,32.383412,-123.303162,18.511,33.236,0.162,0.127
20050711,010810,1053596,32.384073,-123.301752,18.503,33.234,0.162,0.124
20050711,010840,1053626,32.384785,-123.300272,18.500,33.228,0.156,0.110
20050711,010910,1053656,32.385458,-123.298863,18.503,33.221,0.156,0.106
20050711,010939,1053685,32.386130,-123.297400,18.503,33.222,0.162,0.110
20050711,011010,1053715,32.386835,-123.295963,18.497,33.233,0.150,0.100
20050711,011040,1053745,32.387512,-123.294500,18.487,33.226,0.162,0.110
20050711,011110,1053776,32.388190,-123.292992,18.481,33.227,0.162,0.110
20050711,011140,1053806,32.388885,-123.291558,18.492,33.214,0.156,0.105
20050711,011210,1053836,32.389532,-123.290142,18.495,33.215,0.162,0.110
20050711,011240,1053866,32.390267,-123.288642,18.490,33.221,0.167,0.118
20050711,011310,1053895,32.390952,-123.287167,18.480,33.224,0.167,0.123
20050711,011340,1053926,32.391648,-123.285702,18.472,33.227,0.162,0.117
20050711,011411,1053956,32.392318,-123.284238,18.462,33.226,0.162,0.116
20050711,011440,1053986,32.392977,-123.282837,18.458,33.223,0.173,0.128
20050711,011510,1054016,32.393667,-123.281320,18.452,33.226,0.167,0.121
20050711,011540,1054045,32.394332,-123.279880,18.443,33.222,0.162,0.114
20050711,011610,1054075,32.395002,-123.278427,18.445,33.218,0.167,0.118
20050711,011640,1054106,32.395672,-123.276965,18.445,33.214,0.167,0.116
20050711,011710,1054136,32.396353,-123.275502,18.443,33.211,0.162,0.111
20050711,011740,1054166,32.397012,-123.274088,18.441,33.213,0.167,0.115
20050711,011810,1054196,32.397722,-123.272563,18.436,33.212,0.173,0.119
20050711,011841,1054227,32.398420,-123.271083,18.429,33.217,0.167,0.113
20050711,011910,1054255,32.399110,-123.269615,18.423,33.215,0.167,0.113
20050711,011940,1054286,32.399785,-123.268132,18.410,33.217,0.173,0.120
20050711,012010,1054316,32.400437,-123.266717,18.401,33.219,0.167,0.115
20050711,012040,1054346,32.401135,-123.265240,18.410,33.205,0.173,0.121
20050711,012110,1054375,32.401832,-123.263782,18.420,33.202,0.167,0.115
20050711,012140,1054405,32.402498,-123.262327,18.412,33.211,0.167,0.115
20050711,012210,1054436,32.403178,-123.260868,18.413,33.208,0.167,0.115
20050711,012240,1054466,32.403875,-123.259368,18.412,33.209,0.167,0.115
20050711,012310,1054496,32.404540,-123.257943,18.407,33.210,0.167,0.114
20050711,012340,1054526,32.405247,-123.256435,18.402,33.211,0.173,0.119
20050711,012410,1054555,32.405923,-123.254997,18.397,33.211,0.167,0.114
20050711,012440,1054585,32.406602,-123.253552,18.393,33.211,0.162,0.109
20050711,012510,1054616,32.407248,-123.252140,18.384,33.212,0.173,0.119
20050711,012540,1054646,32.407920,-123.250677,18.385,33.205,0.173,0.119
20050711,012610,1054676,32.408598,-123.249185,18.390,33.203,0.167,0.113
20050711,012640,1054706,32.409285,-123.247722,18.398,33.199,0.173,0.118
20050711,012710,1054735,32.409958,-123.246257,18.395,33.203,0.179,0.123
20050711,012740,1054765,32.410613,-123.244773,18.380,33.212,0.167,0.112
20050711,012810,1054796,32.411265,-123.243385,18.367,33.215,0.173,0.116
20050711,012840,1054826,32.411928,-123.241917,18.366,33.208,0.173,0.117
20050711,012910,1054856,32.412618,-123.240397,18.378,33.197,0.173,0.117
20050711,012941,1054887,32.413282,-123.238927,18.397,33.191,0.173,0.117
20050711,013010,1054915,32.413928,-123.237525,18.399,33.196,0.179,0.122
20050711,013040,1054946,32.414590,-123.236062,18.391,33.205,0.173,0.117
20050711,013111,1054976,32.415283,-123.234577,18.394,33.199,0.173,0.117
20050711,013140,1055006,32.415920,-123.233183,18.388,33.203,0.173,0.117
20050711,013210,1055036,32.416590,-123.231723,18.374,33.211,0.173,0.117
20050711,013240,1055065,32.417285,-123.230218,18.364,33.212,0.173,0.118
20050711,013311,1055097,32.417950,-123.228743,18.353,33.209,0.173,0.118
20050711,013340,1055126,32.418605,-123.227327,18.352,33.205,0.173,0.120
20050711,013410,1055156,32.419285,-123.225857,18.348,33.205,0.173,0.122
20050711,013440,1055186,32.419931,-123.224380,18.341,33.206,0.173,0.128
20050711,013510,1055216,32.420640,-123.222863,18.334,33.207,0.179,0.125
20050711,013540,1055245,32.421288,-123.221448,18.339,33.202,0.173,0.119
20050711,013610,1055276,32.421946,-123.219990,18.354,33.191,0.173,0.117
20050711,013640,1055306,32.422631,-123.218517,18.366,33.190,0.173,0.117
20050711,013710,1055336,32.423318,-123.217015,18.369,33.195,0.179,0.122
20050711,013740,1055366,32.423960,-123.215598,18.363,33.201,0.173,0.117
20050711,013810,1055395,32.424656,-123.214095,18.353,33.207,0.173,0.117
20050711,013840,1055425,32.425323,-123.212670,18.353,33.201,0.173,0.116
20050711,013910,1055456,32.426020,-123.211147,18.363,33.196,0.173,0.116
20050711,013941,1055486,32.426696,-123.209675,18.367,33.195,0.167,0.112
20050711,014011,1055516,32.427346,-123.208198,18.371,33.198,0.173,0.117
20050711,014040,1055546,32.428015,-123.206745,18.376,33.197,0.173,0.117
20050711,014110,1055575,32.428678,-123.205278,18.379,33.198,0.167,0.112
20050711,014140,1055605,32.429330,-123.203807,18.373,33.204,0.167,0.112
20050711,014210,1055636,32.429998,-123.202345,18.355,33.215,0.173,0.117
20050711,014241,1055666,32.430671,-123.200890,18.344,33.214,0.173,0.117
20050711,014311,1055697,32.431336,-123.199410,18.343,33.206,0.173,0.117
20050711,014340,1055725,32.432001,-123.197953,18.345,33.202,0.173,0.118
20050711,014410,1055755,32.432671,-123.196488,18.354,33.196,0.167,0.113
20050711,014441,1055787,32.433338,-123.195015,18.357,33.201,0.173,0.117
20050711,014510,1055816,32.434008,-123.193565,18.361,33.200,0.167,0.111
20050711,014540,1055846,32.434660,-123.192090,18.369,33.201,0.173,0.117
20050711,014610,1055876,32.435343,-123.190638,18.376,33.199,0.173,0.118
20050711,014640,1055905,32.436001,-123.189185,18.378,33.204,0.167,0.112
20050711,014711,1055937,32.436673,-123.187740,18.381,33.202,0.162,0.107
20050711,014740,1055966,32.437323,-123.186267,18.385,33.203,0.162,0.107
20050711,014811,1055996,32.438003,-123.184832,18.387,33.205,0.162,0.107
20050711,014840,1056026,32.438646,-123.183367,18.391,33.206,0.162,0.106
20050711,014911,1056057,32.439320,-123.181925,18.397,33.204,0.150,0.096
20050711,014940,1056085,32.439986,-123.180475,18.401,33.205,0.162,0.106
20050711,015010,1056115,32.440653,-123.179008,18.399,33.208,0.162,0.107
20050711,015040,1056146,32.441295,-123.177583,18.394,33.212,0.156,0.102
20050711,015110,1056176,32.441930,-123.176193,18.397,33.207,0.162,0.107
20050711,015140,1056206,32.442570,-123.174765,18.404,33.205,0.162,0.107
20050711,015211,1056237,32.443250,-123.173303,18.406,33.206,0.162,0.107
20050711,015241,1056267,32.443905,-123.171855,18.410,33.207,0.162,0.107
20050711,015310,1056296,32.444563,-123.170415,18.413,33.206,0.156,0.102
20050711,015340,1056326,32.445210,-123.168967,18.412,33.212,0.156,0.101
20050711,015410,1056356,32.445886,-123.167533,18.406,33.214,0.156,0.101
20050711,015440,1056386,32.446543,-123.166058,18.402,33.214,0.156,0.101
20050711,015511,1056417,32.447211,-123.164588,18.405,33.209,0.156,0.100
20050711,015540,1056445,32.447828,-123.163090,18.407,33.209,0.150,0.095
20050711,015611,1056476,32.448450,-123.161612,18.408,33.210,0.156,0.100
20050711,015640,1056506,32.449076,-123.160155,18.411,33.207,0.150,0.096
20050711,015711,1056537,32.449688,-123.158673,18.416,33.214,0.150,0.096
20050711,015741,1056567,32.450298,-123.157195,18.411,33.214,0.150,0.097
20050711,015811,1056597,32.450916,-123.155722,18.406,33.216,0.150,0.098
20050711,015841,1056627,32.451541,-123.154262,18.405,33.214,0.150,0.097
20050711,015910,1056656,32.452161,-123.152788,18.402,33.214,0.156,0.102
20050711,015940,1056686,32.452783,-123.151313,18.399,33.214,0.156,0.103
20050711,020010,1056716,32.453436,-123.149787,18.391,33.219,0.156,0.102
20050711,020040,1056745,32.454066,-123.148298,18.391,33.214,0.156,0.102
20050711,020110,1056775,32.454655,-123.146778,18.385,33.218,0.156,0.102
20050711,020141,1056807,32.455233,-123.145318,18.380,33.209,0.150,0.096
20050711,020210,1056836,32.455793,-123.143808,18.386,33.211,0.156,0.101
20050711,020240,1056866,32.456393,-123.142305,18.386,33.213,0.150,0.096
20050711,020311,1056897,32.456955,-123.140793,18.377,33.218,0.150,0.095
20050711,020340,1056925,32.457530,-123.139283,18.374,33.218,0.156,0.100
20050711,020411,1056957,32.458111,-123.137793,18.368,33.217,0.150,0.095
20050711,020440,1056986,32.458670,-123.136295,18.369,33.211,0.145,0.090
20050711,020510,1057016,32.459250,-123.134773,18.373,33.211,0.150,0.094
20050711,020541,1057047,32.459843,-123.133255,18.372,33.213,0.145,0.089
20050711,020610,1057075,32.460396,-123.131733,18.362,33.219,0.145,0.089
20050711,020640,1057105,32.460966,-123.130250,18.356,33.218,0.150,0.093
20050711,020710,1057136,32.461526,-123.128737,18.355,33.217,0.150,0.094
20050711,020740,1057166,32.462106,-123.127243,18.353,33.214,0.145,0.089
20050711,020810,1057196,32.462691,-123.125740,18.352,33.212,0.145,0.089
20050711,020841,1057227,32.463268,-123.124147,18.351,33.212,0.150,0.093
20050711,020910,1057255,32.463838,-123.122685,18.352,33.212,0.156,0.098
20050711,020941,1057287,32.464423,-123.121130,18.353,33.212,0.150,0.094
20050711,021010,1057316,32.464985,-123.119683,18.354,33.209,0.150,0.094
20050711,021040,1057346,32.465533,-123.118180,18.359,33.207,0.145,0.090
20050711,021110,1057376,32.466101,-123.116667,18.366,33.207,0.150,0.094
20050711,021141,1057407,32.466656,-123.115173,18.366,33.211,0.145,0.089
20050711,021211,1057437,32.467208,-123.113683,18.372,33.210,0.150,0.093
20050711,021241,1057467,32.467756,-123.112262,18.373,33.211,0.156,0.098
20050711,021310,1057496,32.468298,-123.110772,18.366,33.217,0.150,0.093
20050711,021341,1057526,32.468900,-123.109217,18.364,33.218,0.156,0.098
20050711,021411,1057557,32.469451,-123.107725,18.361,33.215,0.150,0.094
20050711,021441,1057587,32.470056,-123.106160,18.358,33.215,0.150,0.094
20050711,021511,1057617,32.470630,-123.104618,18.350,33.220,0.156,0.098
20050711,021541,1057647,32.471175,-123.103147,18.340,33.225,0.150,0.094
20050711,021611,1057676,32.471758,-123.101578,18.335,33.221,0.156,0.098
20050711,021641,1057706,32.472305,-123.100125,18.337,33.215,0.156,0.098
20050711,021711,1057737,32.472903,-123.098555,18.342,33.211,0.150,0.094
20050711,021741,1057767,32.473471,-123.097022,18.341,33.213,0.156,0.098
20050711,021811,1057797,32.474021,-123.095497,18.344,33.210,0.156,0.098
20050711,021841,1057826,32.474583,-123.094007,18.353,33.208,0.150,0.093
20050711,021911,1057856,32.475140,-123.092495,18.359,33.207,0.156,0.097
20050711,021941,1057887,32.475683,-123.090997,18.358,33.213,0.156,0.098
20050711,022011,1057917,32.476245,-123.089492,18.356,33.215,0.156,0.098
20050711,022041,1057947,32.476806,-123.087948,18.358,33.213,0.156,0.098
20050711,022111,1057977,32.477380,-123.086450,18.356,33.215,0.156,0.098
20050711,022141,1058006,32.477945,-123.084935,18.353,33.216,0.162,0.103
20050711,022211,1058036,32.478526,-123.083418,18.353,33.214,0.167,0.107
20050711,022241,1058067,32.479065,-123.081948,18.353,33.215,0.156,0.097
20050711,022311,1058097,32.479605,-123.080427,18.344,33.222,0.162,0.102
20050711,022341,1058127,32.480193,-123.078862,18.337,33.221,0.156,0.097
20050711,022411,1058157,32.480735,-123.077397,18.335,33.215,0.162,0.102
20050711,022441,1058186,32.481333,-123.075835,18.334,33.215,0.162,0.101
20050711,022511,1058216,32.481861,-123.074358,18.339,33.209,0.162,0.102
20050711,022541,1058247,32.482443,-123.072798,18.343,33.214,0.156,0.097
20050711,022611,1058277,32.483006,-123.071295,18.345,33.206,0.162,0.102
20050711,022641,1058307,32.483566,-123.069785,18.346,33.213,0.162,0.102
20050711,022712,1058338,32.484128,-123.068280,18.339,33.219,0.162,0.102
20050711,022741,1058366,32.484666,-123.066760,18.333,33.219,0.162,0.101
20050711,022811,1058397,32.485240,-123.065265,18.327,33.220,0.167,0.106
20050711,022841,1058427,32.485771,-123.063812,18.329,33.214,0.162,0.101
20050711,022911,1058457,32.486318,-123.062318,18.337,33.208,0.162,0.101
20050711,022941,1058487,32.486893,-123.060815,18.341,33.211,0.162,0.101
20050711,023011,1058516,32.487453,-123.059297,18.343,33.211,0.162,0.101
20050711,023041,1058546,32.488011,-123.057792,18.346,33.209,0.162,0.101
20050711,023111,1058577,32.488586,-123.056310,18.356,33.207,0.162,0.101
20050711,023141,1058607,32.489126,-123.054855,18.357,33.209,0.162,0.101
20050711,023211,1058637,32.489703,-123.053283,18.355,33.215,0.162,0.100
20050711,023241,1058667,32.490291,-123.051747,18.349,33.219,0.167,0.105
20050711,023311,1058696,32.490843,-123.050207,18.341,33.220,0.156,0.095
20050711,023342,1058728,32.491438,-123.048712,18.339,33.215,0.167,0.105
20050711,023411,1058757,32.492016,-123.047192,18.335,33.216,0.156,0.096
20050711,023441,1058787,32.492571,-123.045673,18.335,33.216,0.162,0.100
20050711,023511,1058817,32.493128,-123.044142,18.326,33.218,0.156,0.095
20050711,023541,1058846,32.493720,-123.042625,18.322,33.217,0.162,0.100
20050711,023612,1058878,32.494281,-123.041085,18.320,33.215,0.162,0.100
20050711,023641,1058907,32.494825,-123.039542,18.319,33.214,0.162,0.100
20050711,023711,1058937,32.495361,-123.038005,18.316,33.214,0.162,0.100
20050711,023741,1058967,32.495903,-123.036493,18.317,33.212,0.162,0.100
20050711,023811,1058997,32.496478,-123.034970,18.326,33.207,0.167,0.105
20050711,023841,1059026,32.497048,-123.033420,18.329,33.213,0.162,0.100
20050711,023912,1059058,32.497626,-123.031880,18.324,33.214,0.162,0.100
20050711,023942,1059087,32.498195,-123.030345,18.317,33.219,0.167,0.104
20050711,024011,1059117,32.498745,-123.028807,18.311,33.220,0.162,0.100
20050711,024042,1059148,32.499315,-123.027258,18.309,33.216,0.162,0.100
20050711,024111,1059176,32.499888,-123.025722,18.319,33.207,0.167,0.104
20050711,024141,1059206,32.500428,-123.024225,18.333,33.202,0.162,0.099
20050711,024211,1059237,32.500980,-123.022673,18.335,33.208,0.156,0.094
20050711,024241,1059267,32.501571,-123.021080,18.336,33.213,0.156,0.094
20050711,024311,1059297,32.502126,-123.019523,18.335,33.213,0.162,0.099
20050711,024341,1059327,32.502691,-123.017950,18.336,33.214,0.162,0.099